Location: Street
(51.1247°N, 2.7429°W)
Time: 15:36:00
(UTC+00:00)

SR - Pass Details

Date: 04 December 2020
Orbit: 575 x 880 km, 66.7° (Epoch: 26 January)

Event Time Altitude Azimuth Distance (km) Brightness Sun altitude
Rises 17:06:00 0° 198° (SSW) 2,816 ? -9.0°
Reaches altitude 10° 17:08:13 10° 192° (SSW) 1,945 ? -9.4°
Maximum altitude 17:12:24 47° 119° (ESE) 843 ? -10.0°
Enters shadow 17:16:26 13° 48° (NE) 1,921 ? -10.5°
Drops below altitude 10° 17:16:56 10° 46° (NE) 2,107 - -10.6°
Sets 17:19:25 0° 41° (NE) 3,078 - -11.0°
